Location: �terpigny
(49.8910°N, 2.9249°E)
Time: 11:10:28
(UTC+00:00)

USA 238 - Pass Details

Date: 24 October 2021
Orbit: 977 x 1235 km, 63.4° (Epoch: 25 November)

Event Time Altitude Azimuth Distance (km) Brightness Sun altitude
Rises 20:04:58 0° 314° (NW) 3,896 7.6 -33.3°
Reaches altitude 10° 20:07:40 10° 319° (NW) 2,975 6.7 -33.7°
Enters shadow 20:13:30 48° 7° (N) 1,477 4.4 -34.5°
